ProjectID,Date,Electric Generation,Electric Utility Import,Facility Electric Load
,YYYY-MM-DD,kW,kW,kW
400,2016-12-03,0.0,,0.0
400,2016-12-04,0.0,,0.0
400,2016-12-05,0.0,,0.0
400,2016-12-06,0.0,,0.0
400,2016-12-07,17.74025,,17.74025
400,2016-12-08,31.466375,,31.466375
400,2016-12-09,33.10908333333334,,33.10908333333334
400,2016-12-10,32.05766666666667,,32.05766666666667
400,2016-12-11,33.22479166666667,,33.22479166666667
400,2016-12-12,31.838375,,31.838375
400,2016-12-13,28.873,,28.873
400,2016-12-14,8.478833333333332,,8.478833333333332
400,2016-12-15,20.060958333333335,,20.060958333333335
400,2016-12-16,22.023208333333333,,22.023208333333333
400,2016-12-17,23.326458333333335,,23.326458333333335
400,2016-12-18,22.25945833333333,,22.25945833333333
400,2016-12-19,26.910625,,26.910625
400,2016-12-20,19.85375,,19.85375
400,2016-12-21,8.606958333333333,,8.606958333333333
400,2016-12-22,9.537208333333334,,9.537208333333334
400,2016-12-23,9.834,,9.834
400,2016-12-24,13.488833333333334,,13.488833333333334
400,2016-12-25,10.001791666666668,,10.001791666666668
400,2016-12-26,15.643166666666666,,15.643166666666666
400,2016-12-27,16.247541666666667,,16.247541666666667
400,2016-12-28,19.144333333333332,,19.144333333333332
400,2016-12-29,16.913,,16.913
400,2016-12-30,-0.564125,,-0.564125
400,2016-12-31,-0.56425,,-0.56425
400,2017-01-01,-0.5617916666666667,,-0.5617916666666667
400,2017-01-02,-0.5634583333333333,,-0.5634583333333333
400,2017-01-03,-0.5640416666666667,,-0.5640416666666667
400,2017-01-04,-0.5657916666666667,,-0.5657916666666667
400,2017-01-05,-0.5674583333333333,,-0.5674583333333333
400,2017-01-06,-0.5683333333333334,,-0.5683333333333334
400,2017-01-07,-0.5709166666666666,,-0.5709166666666666
400,2017-01-08,-0.5710000000000001,,-0.5710000000000001
400,2017-01-09,-0.5711666666666667,,-0.5711666666666667
400,2017-01-10,-0.5663333333333334,,-0.5663333333333334
400,2017-01-11,19.969708333333333,,19.969708333333333
400,2017-01-12,35.22866666666667,,35.22866666666667
400,2017-01-13,29.41508333333333,,29.41508333333333
400,2017-01-14,23.073458333333335,,23.073458333333335
400,2017-01-15,18.025458333333333,,18.025458333333333
400,2017-01-16,18.03475,,18.03475
400,2017-01-17,25.292458333333332,,25.292458333333332
400,2017-01-18,24.369666666666664,,24.369666666666664
400,2017-01-19,23.25691666666667,,23.25691666666667
400,2017-01-20,21.681,,21.681
400,2017-01-21,18.087374999999998,,18.087374999999998
400,2017-01-22,28.62908333333333,,28.62908333333333
400,2017-01-23,34.797125,,34.797125
400,2017-01-24,34.886541666666666,,34.886541666666666
400,2017-01-25,30.564541666666667,,30.564541666666667
400,2017-01-26,24.349833333333333,,24.349833333333333
400,2017-01-27,26.529291666666666,,26.529291666666666
400,2017-01-28,25.409583333333334,,25.409583333333334
400,2017-01-29,29.130958333333336,,29.130958333333336
400,2017-01-30,31.94904166666667,,31.94904166666667
400,2017-01-31,32.12891666666667,,32.12891666666667
400,2017-02-01,30.733208333333334,,30.733208333333334
400,2017-02-02,29.078833333333336,,29.078833333333336
400,2017-02-03,27.085250000000002,,27.085250000000002
400,2017-02-04,30.685125,,30.685125
400,2017-02-05,33.359791666666666,,33.359791666666666
400,2017-02-06,34.54216666666667,,34.54216666666667
400,2017-02-07,30.601416666666665,,30.601416666666665
400,2017-02-08,29.015249999999998,,29.015249999999998
400,2017-02-09,28.838624999999997,,28.838624999999997
400,2017-02-10,24.773458333333334,,24.773458333333334
400,2017-02-11,2.1999166666666667,,2.1999166666666667
400,2017-02-12,9.549833333333334,,9.549833333333334
400,2017-02-13,18.691875,,18.691875
400,2017-02-14,27.837833333333332,,27.837833333333332
400,2017-02-15,27.232625,,27.232625
400,2017-02-16,25.316708333333334,,25.316708333333334
400,2017-02-17,12.591875,,12.591875
400,2017-02-18,19.166166666666665,,19.166166666666665
400,2017-02-19,21.719458333333336,,21.719458333333336
400,2017-02-20,17.628375000000002,,17.628375000000002
400,2017-02-21,22.608208333333334,,22.608208333333334
400,2017-02-22,14.967083333333333,,14.967083333333333
400,2017-02-23,17.199041666666666,,17.199041666666666
400,2017-02-24,19.616291666666665,,19.616291666666665
400,2017-02-25,13.378583333333333,,13.378583333333333
400,2017-02-26,-0.3334166666666667,,-0.3334166666666667
400,2017-02-27,0.9523333333333334,,0.9523333333333334
400,2017-02-28,2.7839166666666664,,2.7839166666666664
400,2017-03-01,9.30475,,9.30475
400,2017-03-02,12.400666666666666,,12.400666666666666
400,2017-03-03,20.019125,,20.019125
400,2017-03-04,16.006041666666665,,16.006041666666665
400,2017-03-05,2.8874583333333335,,2.8874583333333335
400,2017-03-06,0.7899166666666666,,0.7899166666666666
400,2017-03-07,17.122416666666666,,17.122416666666666
400,2017-03-08,22.110583333333334,,22.110583333333334
400,2017-03-09,19.290583333333334,,19.290583333333334
400,2017-03-10,22.722916666666666,,22.722916666666666
400,2017-03-11,25.50408333333333,,25.50408333333333
400,2017-03-12,23.61991666666667,,23.61991666666667
400,2017-03-13,22.333333333333332,,22.333333333333332
400,2017-03-14,0.7392083333333334,,0.7392083333333334
400,2017-03-15,10.4135,,10.4135
400,2017-03-16,22.7235,,22.7235
400,2017-03-17,22.812166666666666,,22.812166666666666
400,2017-03-18,13.703583333333334,,13.703583333333334
400,2017-03-19,17.495375,,17.495375
400,2017-03-20,20.288791666666665,,20.288791666666665
400,2017-03-21,20.79254166666667,,20.79254166666667
400,2017-03-22,20.340041666666668,,20.340041666666668
400,2017-03-23,27.39125,,27.39125
400,2017-03-24,22.55275,,22.55275
400,2017-03-25,10.6235,,10.6235
400,2017-03-26,0.5614166666666667,,0.5614166666666667
400,2017-03-27,16.133083333333335,,16.133083333333335
400,2017-03-28,16.824416666666668,,16.824416666666668
400,2017-03-29,19.329,,19.329
400,2017-03-30,15.701083333333335,,15.701083333333335
400,2017-03-31,20.535291666666666,,20.535291666666666
400,2017-04-01,14.719958333333333,,14.719958333333333
400,2017-04-02,18.520958333333333,,18.520958333333333
400,2017-04-03,16.5065,,16.5065
400,2017-04-04,17.660291666666666,,17.660291666666666
400,2017-04-05,22.980999999999998,,22.980999999999998
400,2017-04-06,19.36225,,19.36225
400,2017-04-07,15.459958333333333,,15.459958333333333
400,2017-04-08,21.341958333333334,,21.341958333333334
400,2017-04-09,17.385541666666665,,17.385541666666665
400,2017-04-10,15.654208333333335,,15.654208333333335
400,2017-04-11,16.183666666666667,,16.183666666666667
400,2017-04-12,23.284666666666666,,23.284666666666666
400,2017-04-13,14.112541666666667,,14.112541666666667
400,2017-04-14,17.335083333333333,,17.335083333333333
400,2017-04-15,16.119541666666667,,16.119541666666667
400,2017-04-16,14.264583333333334,,14.264583333333334
400,2017-04-17,22.433458333333334,,22.433458333333334
400,2017-04-18,23.95883333333333,,23.95883333333333
400,2017-04-19,26.279208333333333,,26.279208333333333
400,2017-04-20,22.465708333333335,,22.465708333333335
400,2017-04-21,18.50125,,18.50125
400,2017-04-22,9.755041666666667,,9.755041666666667
400,2017-04-23,27.117125,,27.117125
400,2017-04-24,22.214250000000003,,22.214250000000003
400,2017-04-25,19.786416666666668,,19.786416666666668
400,2017-04-26,13.231416666666666,,13.231416666666666
400,2017-04-27,13.54025,,13.54025
400,2017-04-28,12.602791666666667,,12.602791666666667
400,2017-04-29,13.134791666666667,,13.134791666666667
400,2017-04-30,15.742166666666668,,15.742166666666668
400,2017-05-01,13.971083333333333,,13.971083333333333
400,2017-05-02,10.50775,,10.50775
400,2017-05-03,14.841833333333334,,14.841833333333334
400,2017-05-04,12.103583333333333,,12.103583333333333
400,2017-05-05,11.799875,,11.799875
400,2017-05-06,11.033375,,11.033375
400,2017-05-07,13.417333333333334,,13.417333333333334
400,2017-05-08,11.045916666666665,,11.045916666666665
400,2017-05-09,10.097583333333334,,10.097583333333334
400,2017-05-10,13.301124999999999,,13.301124999999999
400,2017-05-11,13.3065,,13.3065
400,2017-05-12,10.858291666666666,,10.858291666666666
400,2017-05-13,11.031791666666665,,11.031791666666665
400,2017-05-14,12.975999999999999,,12.975999999999999
400,2017-05-15,15.579583333333334,,15.579583333333334
400,2017-05-16,15.871083333333333,,15.871083333333333
400,2017-05-17,13.429833333333333,,13.429833333333333
400,2017-05-18,9.064625,,9.064625
400,2017-05-19,10.998083333333334,,10.998083333333334
400,2017-05-20,11.524583333333332,,11.524583333333332
400,2017-05-21,12.671791666666666,,12.671791666666666
400,2017-05-22,12.493333333333332,,12.493333333333332
400,2017-05-23,12.656666666666666,,12.656666666666666
400,2017-05-24,13.360333333333335,,13.360333333333335
400,2017-05-25,15.161,,15.161
400,2017-05-26,13.504875,,13.504875
400,2017-05-27,10.361916666666668,,10.361916666666668
400,2017-05-28,11.839833333333333,,11.839833333333333
400,2017-05-29,13.112958333333333,,13.112958333333333
400,2017-05-30,16.440541666666665,,16.440541666666665
400,2017-05-31,8.3195,,8.3195
400,2017-06-01,15.525416666666667,,15.525416666666667
400,2017-06-02,12.826583333333334,,12.826583333333334
400,2017-06-03,11.851291666666667,,11.851291666666667
400,2017-06-04,11.582083333333335,,11.582083333333335
400,2017-06-05,13.306208333333332,,13.306208333333332
400,2017-06-06,12.811166666666667,,12.811166666666667
400,2017-06-07,6.55075,,6.55075
400,2017-06-08,15.225333333333333,,15.225333333333333
400,2017-06-09,13.956458333333332,,13.956458333333332
400,2017-06-10,12.104666666666667,,12.104666666666667
400,2017-06-11,11.076875000000001,,11.076875000000001
400,2017-06-12,10.12825,,10.12825
400,2017-06-13,11.664333333333333,,11.664333333333333
400,2017-06-14,13.57175,,13.57175
400,2017-06-15,14.440125,,14.440125
400,2017-06-16,14.962583333333333,,14.962583333333333
400,2017-06-17,14.721708333333334,,14.721708333333334
400,2017-06-18,15.470958333333334,,15.470958333333334
400,2017-06-19,18.253833333333333,,18.253833333333333
400,2017-06-20,14.358875,,14.358875
400,2017-06-21,15.762666666666666,,15.762666666666666
400,2017-06-22,12.963375,,12.963375
400,2017-06-23,2.488583333333333,,2.488583333333333
400,2017-06-24,8.236833333333333,,8.236833333333333
400,2017-06-25,9.961625,,9.961625
400,2017-06-26,14.254875,,14.254875
400,2017-06-27,11.955208333333333,,11.955208333333333
400,2017-06-28,12.866416666666666,,12.866416666666666
400,2017-06-29,12.286916666666668,,12.286916666666668
400,2017-06-30,11.517916666666666,,11.517916666666666
400,2017-07-01,9.778291666666666,,9.778291666666666
400,2017-07-02,9.512041666666667,,9.512041666666667
400,2017-07-03,9.794541666666666,,9.794541666666666
400,2017-07-04,8.884625,,8.884625
400,2017-07-05,9.684958333333332,,9.684958333333332
400,2017-07-06,10.513916666666667,,10.513916666666667
400,2017-07-07,10.876833333333332,,10.876833333333332
400,2017-07-08,10.148875,,10.148875
400,2017-07-09,11.94225,,11.94225
400,2017-07-10,14.42825,,14.42825
400,2017-07-11,13.025875,,13.025875
400,2017-07-12,10.370583333333334,,10.370583333333334
400,2017-07-13,10.933750000000002,,10.933750000000002
400,2017-07-14,8.051375,,8.051375
400,2017-07-15,10.206625,,10.206625
400,2017-07-16,10.986958333333334,,10.986958333333334
400,2017-07-17,9.418083333333334,,9.418083333333334
400,2017-07-18,4.233875,,4.233875
400,2017-07-19,-0.5879166666666666,,-0.5879166666666666
400,2017-07-20,7.805458333333333,,7.805458333333333
400,2017-07-21,11.102458333333333,,11.102458333333333
400,2017-07-22,10.815249999999999,,10.815249999999999
400,2017-07-23,11.901083333333332,,11.901083333333332
400,2017-07-24,10.647833333333333,,10.647833333333333
400,2017-07-25,12.6775,,12.6775
400,2017-07-26,14.768500000000001,,14.768500000000001
400,2017-07-27,12.385,,12.385
400,2017-07-28,16.313375,,16.313375
400,2017-07-29,11.423166666666667,,11.423166666666667
400,2017-07-30,15.91675,,15.91675
400,2017-07-31,24.009833333333333,,24.009833333333333
400,2017-08-01,33.423875,,33.423875
400,2017-08-02,43.47933333333333,,43.47933333333333
400,2017-08-03,42.104083333333335,,42.104083333333335
400,2017-08-04,43.144083333333334,,43.144083333333334
400,2017-08-05,14.462541666666667,,14.462541666666667
400,2017-08-06,34.231,,34.231
400,2017-08-07,15.919125000000001,,15.919125000000001
400,2017-08-08,27.843208333333333,,27.843208333333333
400,2017-08-09,40.709125,,40.709125
400,2017-08-10,28.238916666666668,,28.238916666666668
400,2017-08-11,42.73525,,42.73525
400,2017-08-12,44.544375,,44.544375
400,2017-08-13,43.96420833333334,,43.96420833333334
400,2017-08-14,43.72304166666667,,43.72304166666667
400,2017-08-15,43.0155,,43.0155
400,2017-08-16,37.568958333333335,,37.568958333333335
400,2017-08-17,38.86841666666667,,38.86841666666667
400,2017-08-18,39.269124999999995,,39.269124999999995
400,2017-08-19,38.533875,,38.533875
400,2017-08-20,38.418625,,38.418625
400,2017-08-21,35.82329166666667,,35.82329166666667
400,2017-08-22,32.332208333333334,,32.332208333333334
400,2017-08-23,31.625625,,31.625625
400,2017-08-24,13.293458333333334,,13.293458333333334
400,2017-08-25,6.151875,,6.151875
400,2017-08-26,14.201041666666667,,14.201041666666667
400,2017-08-27,13.702416666666666,,13.702416666666666
400,2017-08-28,14.143833333333333,,14.143833333333333
400,2017-08-29,15.384791666666667,,15.384791666666667
400,2017-08-30,15.128166666666667,,15.128166666666667
400,2017-08-31,14.166458333333333,,14.166458333333333
400,2017-09-01,13.883125,,13.883125
400,2017-09-02,15.2845,,15.2845
400,2017-09-03,13.532083333333333,,13.532083333333333
400,2017-09-04,15.337000000000002,,15.337000000000002
400,2017-09-05,16.28708333333333,,16.28708333333333
400,2017-09-06,15.511666666666665,,15.511666666666665
400,2017-09-07,16.488833333333336,,16.488833333333336
400,2017-09-08,15.951500000000001,,15.951500000000001
400,2017-09-09,14.633291666666667,,14.633291666666667
400,2017-09-10,16.556583333333332,,16.556583333333332
400,2017-09-11,16.359166666666667,,16.359166666666667
400,2017-09-12,16.906375,,16.906375
400,2017-09-13,14.504958333333335,,14.504958333333335
400,2017-09-14,16.241208333333333,,16.241208333333333
400,2017-09-15,13.836083333333333,,13.836083333333333
400,2017-09-16,15.307208333333334,,15.307208333333334
400,2017-09-17,15.879125,,15.879125
400,2017-09-18,16.488625,,16.488625
400,2017-09-19,15.713625,,15.713625
400,2017-09-20,17.626041666666666,,17.626041666666666
400,2017-09-21,17.130125,,17.130125
400,2017-09-22,13.715125,,13.715125
400,2017-09-23,16.345458333333333,,16.345458333333333
400,2017-09-24,16.63525,,16.63525
400,2017-09-25,15.915416666666667,,15.915416666666667
400,2017-09-26,17.063291666666668,,17.063291666666668
400,2017-09-27,15.2695,,15.2695
400,2017-09-28,8.209916666666667,,8.209916666666667
400,2017-09-29,14.893333333333333,,14.893333333333333
400,2017-09-30,13.777041666666667,,13.777041666666667
400,2017-10-01,17.0155,,17.0155
400,2017-10-02,9.464583333333334,,9.464583333333334
400,2017-10-03,10.669166666666667,,10.669166666666667
400,2017-10-04,8.17325,,8.17325
400,2017-10-05,16.313291666666668,,16.313291666666668
400,2017-10-06,14.220416666666667,,14.220416666666667
400,2017-10-07,10.56625,,10.56625
400,2017-10-08,6.261875,,6.261875
400,2017-10-09,12.080416666666666,,12.080416666666666
400,2017-10-10,14.362583333333333,,14.362583333333333
400,2017-10-11,19.970958333333332,,19.970958333333332
400,2017-10-12,13.009625,,13.009625
400,2017-10-13,6.3840416666666675,,6.3840416666666675
400,2017-10-14,12.151583333333333,,12.151583333333333
400,2017-10-15,6.386166666666667,,6.386166666666667
400,2017-10-16,16.639541666666666,,16.639541666666666
400,2017-10-17,14.277583333333332,,14.277583333333332
400,2017-10-18,11.096708333333334,,11.096708333333334
400,2017-10-19,18.805375,,18.805375
400,2017-10-20,18.814583333333335,,18.814583333333335
400,2017-10-21,14.675041666666667,,14.675041666666667
400,2017-10-22,15.821875,,15.821875
400,2017-10-23,16.515,,16.515
400,2017-10-24,15.185,,15.185
400,2017-10-25,11.924333333333335,,11.924333333333335
400,2017-10-26,12.174416666666666,,12.174416666666666
400,2017-10-27,14.999416666666667,,14.999416666666667
400,2017-10-28,5.4366666666666665,,5.4366666666666665
400,2017-10-29,9.079166666666667,,9.079166666666667
400,2017-10-30,20.941166666666668,,20.941166666666668
400,2017-10-31,19.842958333333332,,19.842958333333332
400,2017-11-01,20.62,,20.62
400,2017-11-02,15.709333333333333,,15.709333333333333
400,2017-11-03,10.448166666666667,,10.448166666666667
400,2017-11-04,17.954041666666665,,17.954041666666665
400,2017-11-05,17.7805,,17.7805
400,2017-11-06,12.094958333333333,,12.094958333333333
400,2017-11-07,19.010375,,19.010375
400,2017-11-08,19.749750000000002,,19.749750000000002
400,2017-11-09,8.223333333333334,,8.223333333333334
400,2017-11-10,16.97225,,16.97225
400,2017-11-11,14.195958333333332,,14.195958333333332
400,2017-11-12,16.942208333333333,,16.942208333333333
400,2017-11-13,12.1245,,12.1245
400,2017-11-14,1.8968333333333334,,1.8968333333333334
400,2017-11-15,11.93275,,11.93275
400,2017-11-16,15.31275,,15.31275
400,2017-11-17,12.125333333333332,,12.125333333333332
400,2017-11-18,7.9070833333333335,,7.9070833333333335
400,2017-11-19,13.980666666666666,,13.980666666666666
400,2017-11-20,12.952833333333333,,12.952833333333333
400,2017-11-21,15.424166666666666,,15.424166666666666
400,2017-11-22,19.594541666666668,,19.594541666666668
400,2017-11-23,13.300083333333333,,13.300083333333333
400,2017-11-24,12.968333333333334,,12.968333333333334
400,2017-11-25,11.294083333333333,,11.294083333333333
400,2017-11-26,13.649791666666667,,13.649791666666667
400,2017-11-27,17.160833333333333,,17.160833333333333
400,2017-11-28,12.202833333333333,,12.202833333333333
400,2017-11-29,12.203375,,12.203375
400,2017-11-30,14.109875,,14.109875
400,2017-12-01,18.334875,,18.334875
400,2017-12-02,16.534041666666667,,16.534041666666667
400,2017-12-03,10.886249999999999,,10.886249999999999
400,2017-12-04,11.220791666666665,,11.220791666666665
400,2017-12-05,9.804375,,9.804375
400,2017-12-06,18.09475,,18.09475
400,2017-12-07,9.786125,,9.786125
400,2017-12-08,9.138083333333332,,9.138083333333332
400,2017-12-09,10.209291666666667,,10.209291666666667
400,2017-12-10,18.127958333333336,,18.127958333333336
400,2017-12-11,16.764333333333333,,16.764333333333333
400,2017-12-12,17.568208333333335,,17.568208333333335
400,2017-12-13,15.869416666666666,,15.869416666666666
400,2017-12-14,21.823583333333332,,21.823583333333332
400,2017-12-15,15.79325,,15.79325
400,2017-12-16,15.421041666666667,,15.421041666666667
400,2017-12-17,24.142916666666665,,24.142916666666665
400,2017-12-18,24.15116666666667,,24.15116666666667
400,2017-12-19,15.898166666666667,,15.898166666666667
400,2017-12-20,18.912625000000002,,18.912625000000002
400,2017-12-21,18.221999999999998,,18.221999999999998
400,2017-12-22,21.327083333333334,,21.327083333333334
400,2017-12-23,18.12125,,18.12125
400,2017-12-24,18.242958333333334,,18.242958333333334
400,2017-12-25,15.657333333333334,,15.657333333333334
400,2017-12-26,16.990666666666666,,16.990666666666666
400,2017-12-27,20.809416666666667,,20.809416666666667
400,2017-12-28,20.858375,,20.858375
400,2017-12-29,19.990083333333335,,19.990083333333335
400,2017-12-30,17.729499999999998,,17.729499999999998
400,2017-12-31,19.780625,,19.780625
400,2018-01-01,19.673375,,19.673375
400,2018-01-02,23.860416666666666,,23.860416666666666
400,2018-01-03,22.91395833333333,,22.91395833333333
400,2018-01-04,24.817458333333335,,24.817458333333335
400,2018-01-05,25.613874999999997,,25.613874999999997
400,2018-01-06,21.975166666666667,,21.975166666666667
400,2018-01-07,17.98875,,17.98875
400,2018-01-08,23.015083333333333,,23.015083333333333
400,2018-01-09,24.078208333333333,,24.078208333333333
400,2018-01-10,22.520124999999997,,22.520124999999997
400,2018-01-11,25.716583333333332,,25.716583333333332
400,2018-01-12,32.9005,,32.9005
400,2018-01-13,30.788083333333333,,30.788083333333333
400,2018-01-14,29.92758333333333,,29.92758333333333
400,2018-01-15,33.81529166666667,,33.81529166666667
400,2018-01-16,28.901458333333334,,28.901458333333334
400,2018-01-17,11.8635,,11.8635
400,2018-01-18,26.013499999999997,,26.013499999999997
400,2018-01-19,25.76070833333333,,25.76070833333333
400,2018-01-20,13.743958333333333,,13.743958333333333
400,2018-01-21,8.517583333333333,,8.517583333333333
400,2018-01-22,15.431583333333334,,15.431583333333334
400,2018-01-23,16.480333333333334,,16.480333333333334
400,2018-01-24,21.806375,,21.806375
400,2018-01-25,19.685875,,19.685875
400,2018-01-26,12.579583333333334,,12.579583333333334
400,2018-01-27,-0.5913333333333334,,-0.5913333333333334
400,2018-01-28,8.782291666666667,,8.782291666666667
400,2018-01-29,9.836166666666667,,9.836166666666667
400,2018-01-30,7.959583333333334,,7.959583333333334
400,2018-01-31,14.917499999999999,,14.917499999999999
400,2018-02-01,19.73675,,19.73675
400,2018-02-02,17.972458333333332,,17.972458333333332
400,2018-02-03,18.885083333333334,,18.885083333333334
400,2018-02-04,17.647625,,17.647625
400,2018-02-05,20.937,,20.937
400,2018-02-06,15.350041666666668,,15.350041666666668
400,2018-02-07,11.508416666666667,,11.508416666666667
400,2018-02-08,19.4395,,19.4395
400,2018-02-09,12.289375,,12.289375
400,2018-02-10,9.572000000000001,,9.572000000000001
400,2018-02-11,16.684166666666666,,16.684166666666666
400,2018-02-12,19.541625,,19.541625
400,2018-02-13,22.089916666666667,,22.089916666666667
400,2018-02-14,20.722375,,20.722375
400,2018-02-15,15.978875,,15.978875
400,2018-02-16,21.08675,,21.08675
400,2018-02-17,18.805291666666665,,18.805291666666665
400,2018-02-18,12.839291666666666,,12.839291666666666
400,2018-02-19,21.615375,,21.615375
400,2018-02-20,10.497208333333333,,10.497208333333333
400,2018-02-21,11.762916666666667,,11.762916666666667
400,2018-02-22,12.193666666666667,,12.193666666666667
400,2018-02-23,14.199375000000002,,14.199375000000002
400,2018-02-24,21.678458333333335,,21.678458333333335
400,2018-02-25,23.554833333333335,,23.554833333333335
400,2018-02-26,19.903708333333334,,19.903708333333334
400,2018-02-27,8.390083333333333,,8.390083333333333
400,2018-02-28,7.600791666666667,,7.600791666666667
400,2018-03-01,12.191958333333334,,12.191958333333334
400,2018-03-02,10.032666666666666,,10.032666666666666
400,2018-03-03,17.248124999999998,,17.248124999999998
400,2018-03-04,12.587416666666668,,12.587416666666668
400,2018-03-05,19.549458333333334,,19.549458333333334
400,2018-03-06,21.643291666666666,,21.643291666666666
400,2018-03-07,11.636666666666665,,11.636666666666665
400,2018-03-08,9.714833333333333,,9.714833333333333
400,2018-03-09,10.218874999999999,,10.218874999999999
400,2018-03-10,11.698583333333334,,11.698583333333334
400,2018-03-11,12.963375,,12.963375
400,2018-03-12,7.133583333333333,,7.133583333333333
400,2018-03-13,11.296291666666667,,11.296291666666667
400,2018-03-14,15.885916666666667,,15.885916666666667
400,2018-03-15,8.901666666666666,,8.901666666666666
400,2018-03-16,22.305458333333334,,22.305458333333334
400,2018-03-17,24.107666666666663,,24.107666666666663
400,2018-03-18,26.45404166666667,,26.45404166666667
400,2018-03-19,27.73275,,27.73275
400,2018-03-20,27.96775,,27.96775
400,2018-03-21,28.984333333333336,,28.984333333333336
400,2018-03-22,27.273875,,27.273875
400,2018-03-23,23.791208333333334,,23.791208333333334
400,2018-03-24,37.565875,,37.565875
400,2018-03-25,33.05220833333333,,33.05220833333333
400,2018-03-26,30.859041666666666,,30.859041666666666
400,2018-03-27,27.424666666666667,,27.424666666666667
400,2018-03-28,27.206166666666665,,27.206166666666665
400,2018-03-29,19.94995833333333,,19.94995833333333
400,2018-03-30,18.806375,,18.806375
400,2018-03-31,27.051374999999997,,27.051374999999997